| time (UTC) | temp F | wind direction | speed MPH | gust MPH | rain 1hr in | rain 24hr in | rain mn in | humidity % | barometer mb |
| 20260509191535 | 90 | 121 | 0.0 | 0.0 | 0.00 | 0.00 | 0.00 | 55 | 1009.4 |
| 20260509190534 | 90 | 209 | 0.0 | 2.0 | 0.00 | 0.00 | 0.00 | 54 | 1009.5 |
| 20260509185536 | 90 | 198 | 0.0 | 0.0 | 0.00 | 0.00 | 0.00 | 57 | 1009.7 |
| 20260509184634 | 90 | 33 | 1.0 | 2.0 | 0.00 | 0.00 | 0.00 | 59 | 1009.7 |
| 20260509183636 | 89 | 247 | 0.0 | 0.0 | 0.00 | 0.00 | 0.00 | 60 | 1009.7 |
| 20260509182637 | 88 | 187 | 0.0 | 0.0 | 0.00 | 0.00 | 0.00 | 63 | 1010.2 |
| 20260509181634 | 88 | 202 | 1.0 | 3.0 | 0.00 | 0.00 | 0.00 | 66 | 1010.3 |
| 20260509180637 | 86 | 225 | 0.0 | 1.0 | 0.00 | 0.00 | 0.00 | 70 | 1010.4 |
| 20260509173636 | 83 | 225 | 0.0 | 0.0 | 0.00 | 0.00 | 0.00 | 76 | 1011.2 |
| 20260509171733 | 82 | 225 | 0.0 | 1.0 | 0.00 | 0.00 | 0.00 | 78 | 1011.2 |
| 20260509170736 | 83 | 202 | 0.0 | 1.0 | 0.00 | 0.00 | 0.00 | 78 | 1011.2 |
| 20260509165734 | 83 | 202 | 0.0 | 2.0 | 0.00 | 0.00 | 0.00 | 78 | 1011.3 |
| 20260509164738 | 83 | 206 | 0.0 | 2.0 | 0.00 | 0.00 | 0.00 | 78 | 1011.4 |
| 20260509163834 | 83 | 225 | 0.0 | 1.0 | 0.00 | 0.00 | 0.00 | 77 | 1011.4 |
| 20260509162834 | 83 | 202 | 1.0 | 3.0 | 0.00 | 0.00 | 0.00 | 78 | 1011.2 |
| 20260509161833 | 82 | 180 | 1.0 | 2.0 | 0.00 | 0.00 | 0.00 | 79 | 1011.1 |
| 20260509160836 | 82 | 112 | 0.0 | 0.0 | 0.00 | 0.00 | 0.00 | 81 | 1011.2 |
| 20260509155934 | 82 | 43 | 0.0 | 1.0 | 0.00 | 0.00 | 0.00 | 82 | 1011.2 |
| 20260509154936 | 81 | 202 | 0.0 | 0.0 | 0.00 | 0.00 | 0.00 | 83 | 1011.4 |
| 20260509154034 | 80 | 202 | 0.0 | 0.0 | 0.00 | 0.00 | 0.00 | 85 | 1011.1 |
| 20260509153037 | 79 | 105 | 0.0 | 1.0 | 0.00 | 0.00 | 0.00 | 87 | 1010.6 |
| 20260509152134 | 78 | 225 | 0.0 | 0.0 | 0.00 | 0.00 | 0.00 | 88 | 1010.9 |
| 20260509151034 | 78 | 225 | 0.0 | 0.0 | 0.00 | 0.00 | 0.00 | 88 | 1010.9 |
| 20260509150036 | 78 | 173 | 0.0 | 0.0 | 0.00 | 0.00 | 0.00 | 87 | 1010.6 |
| 20260509145034 | 78 | 180 | 0.0 | 0.0 | 0.00 | 0.00 | 0.00 | 88 | 1011.1 |
| 20260509144133 | 78 | 180 | 0.0 | 0.0 | 0.00 | 0.00 | 0.00 | 88 | 1011.2 |
| 20260509143134 | 78 | 201 | 0.0 | 0.0 | 0.00 | 0.00 | 0.00 | 89 | 1011.2 |
| 20260509141135 | 78 | 225 | 0.0 | 0.0 | 0.00 | 0.01 | 0.00 | 92 | 1011.2 |
| 20260509140136 | 77 | 225 | 0.0 | 0.0 | 0.00 | 0.01 | 0.00 | 94 | 1011.0 |
| 20260509135133 | 76 | 225 | 0.0 | 1.0 | 0.00 | 0.01 | 0.00 | 96 | 1011.1 |
| 20260509135034 | 76 | 225 | 0.0 | 0.0 | 0.00 | 0.01 | 0.00 | 96 | 1011.1 |
| 20260509134036 | 76 | 225 | 0.0 | 2.0 | 0.00 | 0.01 | 0.00 | 96 | 1010.9 |
| 20260509133035 | 76 | 225 | 0.0 | 0.0 | 0.00 | 0.01 | 0.00 | 97 | 1011.1 |
| 20260509132036 | 75 | 225 | 0.0 | 0.0 | 0.00 | 0.01 | 0.00 | 97 | 1011.5 |
| 20260509130136 | 75 | 225 | 0.0 | 0.0 | 0.00 | 0.01 | 0.00 | 97 | 1011.0 |
| 20260509125134 | 75 | 225 | 1.0 | 2.0 | 0.00 | 0.01 | 0.00 | 98 | 1011.0 |
| 20260509124134 | 75 | 225 | 0.0 | 1.0 | 0.00 | 0.01 | 0.00 | 98 | 1011.1 |
| 20260509122134 | 75 | 225 | 0.0 | 0.0 | 0.00 | 0.01 | 0.00 | 98 | 1011.0 |
| 20260509121135 | 74 | 225 | 0.0 | 0.0 | 0.00 | 0.01 | 0.00 | 97 | 1010.9 |
| 20260509120135 | 74 | 225 | 0.0 | 0.0 | 0.00 | 0.01 | 0.00 | 97 | 1011.0 |
| 20260509114133 | 74 | 225 | 0.0 | 0.0 | 0.00 | 0.01 | 0.00 | 97 | 1011.2 |
| 20260509113136 | 74 | 225 | 0.0 | 0.0 | 0.00 | 0.01 | 0.00 | 97 | 1010.9 |
| 20260509113036 | 74 | 225 | 0.0 | 0.0 | 0.00 | 0.01 | 0.00 | 97 | 1011.0 |
| 20260509111034 | 74 | 225 | 0.0 | 0.0 | 0.00 | 0.01 | 0.00 | 97 | 1010.9 |
| 20260509110133 | 74 | 225 | 0.0 | 0.0 | 0.00 | 0.01 | 0.00 | 98 | 1010.6 |
| 20260509105134 | 74 | 225 | 0.0 | 0.0 | 0.00 | 0.01 | 0.00 | 97 | 1010.4 |
| 20260509104136 | 74 | 225 | 0.0 | 0.0 | 0.00 | 0.01 | 0.00 | 97 | 1010.4 |
| 20260509103136 | 74 | 225 | 0.0 | 0.0 | 0.00 | 0.01 | 0.00 | 97 | 1010.4 |
| 20260509102136 | 74 | 225 | 0.0 | 0.0 | 0.00 | 0.01 | 0.00 | 97 | 1010.5 |
| 20260509101136 | 74 | 225 | 0.0 | 0.0 | 0.00 | 0.01 | 0.00 | 97 | 1010.7 |
| 20260509095233 | 74 | 225 | 0.0 | 0.0 | 0.00 | 0.01 | 0.00 | 97 | 1010.4 |
| 20260509093236 | 73 | 225 | 0.0 | 0.0 | 0.00 | 0.01 | 0.00 | 97 | 1010.2 |
| 20260509092334 | 73 | 225 | 0.0 | 0.0 | 0.00 | 0.01 | 0.00 | 96 | 1009.9 |
| 20260509090336 | 73 | 225 | 0.0 | 0.0 | 0.00 | 0.01 | 0.00 | 97 | 1010.1 |
| 20260509085335 | 73 | 225 | 0.0 | 0.0 | 0.00 | 0.01 | 0.00 | 97 | 1009.9 |
| 20260509084334 | 73 | 225 | 0.0 | 0.0 | 0.00 | 0.01 | 0.00 | 97 | 1010.0 |
| 20260509084236 | 73 | 225 | 0.0 | 0.0 | 0.00 | 0.01 | 0.00 | 97 | 1010.0 |
| 20260509083335 | 73 | 225 | 0.0 | 0.0 | 0.00 | 0.01 | 0.00 | 96 | 1010.2 |
| 20260509082434 | 73 | 225 | 0.0 | 0.0 | 0.00 | 0.01 | 0.00 | 97 | 1010.1 |
| 20260509081434 | 73 | 225 | 0.0 | 0.0 | 0.00 | 0.01 | 0.00 | 97 | 1010.2 |
| 20260509080435 | 73 | 225 | 0.0 | 0.0 | 0.00 | 0.01 | 0.00 | 96 | 1010.2 |
| 20260509074435 | 73 | 225 | 0.0 | 0.0 | 0.00 | 0.01 | 0.00 | 96 | 1010.6 |
| 20260509073534 | 73 | 225 | 0.0 | 0.0 | 0.00 | 0.01 | 0.00 | 96 | 1010.7 |
| 20260509072535 | 73 | 225 | 0.0 | 0.0 | 0.00 | 0.01 | 0.00 | 96 | 1010.8 |
| 20260509071536 | 73 | 225 | 0.0 | 0.0 | 0.00 | 0.01 | 0.00 | 95 | 1010.8 |
| 20260509070535 | 73 | 225 | 0.0 | 0.0 | 0.00 | 0.01 | 0.00 | 95 | 1010.9 |
| 20260509065536 | 73 | 225 | 0.0 | 0.0 | 0.00 | 0.01 | 0.00 | 95 | 1010.6 |
| 20260509064635 | 73 | 225 | 0.0 | 0.0 | 0.00 | 0.01 | 0.00 | 96 | 1010.5 |
| 20260509063635 | 73 | 225 | 0.0 | 0.0 | 0.00 | 0.01 | 0.00 | 96 | 1010.6 |
| 20260509062636 | 74 | 225 | 0.0 | 0.0 | 0.00 | 0.01 | 0.00 | 96 | 1010.8 |
| 20260509061636 | 74 | 225 | 0.0 | 0.0 | 0.00 | 0.01 | 0.00 | 96 | 1010.9 |
| 20260509060635 | 74 | 225 | 0.0 | 0.0 | 0.00 | 0.01 | 0.00 | 96 | 1010.7 |
| 20260509055633 | 74 | 225 | 0.0 | 0.0 | 0.00 | 0.01 | 0.00 | 96 | 1010.9 |
| 20260509054635 | 75 | 225 | 0.0 | 0.0 | 0.00 | 0.01 | 0.00 | 96 | 1010.9 |
| 20260509053636 | 75 | 225 | 0.0 | 0.0 | 0.00 | 0.01 | 0.00 | 95 | 1010.9 |
| 20260509052735 | 75 | 225 | 0.0 | 0.0 | 0.00 | 0.01 | 0.00 | 95 | 1011.1 |
| 20260509051735 | 75 | 225 | 0.0 | 0.0 | 0.00 | 0.01 | 0.00 | 96 | 1010.9 |
| 20260509045740 | 75 | 225 | 0.0 | 0.0 | 0.00 | 0.01 | 0.01 | 95 | 1011.2 |
| 20260509042811 | 75 | 135 | 0.0 | 0.0 | 0.00 | 0.01 | 0.01 | 95 | 1011.2 |
| 20260509040642 | 75 | 202 | 0.0 | 2.0 | 0.00 | 0.01 | 0.01 | 95 | 1011.3 |
| 20260509035642 | 75 | 202 | 0.0 | 0.0 | 0.00 | 0.01 | 0.01 | 94 | 1011.0 |
| 20260509034641 | 75 | 180 | 0.0 | 0.0 | 0.00 | 0.01 | 0.01 | 95 | 1010.7 |
| 20260509033642 | 75 | 180 | 0.0 | 0.0 | 0.00 | 0.01 | 0.01 | 95 | 1010.9 |
| 20260509032643 | 75 | 45 | 0.0 | 0.0 | 0.00 | 0.01 | 0.01 | 95 | 1010.8 |
| 20260509031741 | 75 | 94 | 0.0 | 0.0 | 0.00 | 0.01 | 0.01 | 94 | 1010.9 |
| 20260509030840 | 75 | 67 | 0.0 | 0.0 | 0.00 | 0.01 | 0.01 | 93 | 1010.6 |
| 20260509025841 | 75 | 67 | 0.0 | 0.0 | 0.00 | 0.01 | 0.01 | 93 | 1010.7 |
| 20260509024842 | 75 | 112 | 0.0 | 0.0 | 0.00 | 0.01 | 0.01 | 94 | 1010.7 |
| 20260509022841 | 74 | 112 | 0.0 | 0.0 | 0.00 | 0.01 | 0.01 | 94 | 1010.4 |
| 20260509022742 | 74 | 112 | 0.0 | 0.0 | 0.00 | 0.01 | 0.01 | 94 | 1010.3 |
| 20260509021840 | 74 | 135 | 0.0 | 0.0 | 0.00 | 0.01 | 0.01 | 93 | 1010.5 |
| 20260509020842 | 74 | 135 | 0.0 | 0.0 | 0.00 | 0.01 | 0.01 | 94 | 1010.3 |
| 20260509015842 | 74 | 67 | 0.0 | 0.0 | 0.00 | 0.01 | 0.01 | 93 | 1010.0 |
| 20260509014842 | 74 | 67 | 0.0 | 0.0 | 0.00 | 0.01 | 0.01 | 94 | 1009.9 |
| 20260509013842 | 74 | 70 | 0.0 | 0.0 | 0.00 | 0.01 | 0.01 | 92 | 1009.8 |
| 20260509011841 | 74 | 107 | 0.0 | 0.0 | 0.00 | 0.01 | 0.01 | 93 | 1009.9 |
| 20260509010843 | 74 | 112 | 0.0 | 0.0 | 0.00 | 0.01 | 0.01 | 93 | 1010.4 |
| 20260509005842 | 74 | 106 | 0.0 | 0.0 | 0.00 | 0.01 | 0.01 | 93 | 1009.9 |
| 20260509004841 | 74 | 104 | 0.0 | 0.0 | 0.00 | 0.01 | 0.01 | 93 | 1009.9 |
| 20260509003841 | 74 | 90 | 0.0 | 0.0 | 0.00 | 0.01 | 0.01 | 93 | 1010.1 |
| 20260509001841 | 74 | 112 | 0.0 | 0.0 | 0.00 | 0.01 | 0.01 | 91 | 1010.0 |
| 20260508234841 | 74 | 16 | 1.0 | 2.0 | 0.00 | 0.01 | 0.01 | 91 | 1010.4 |
| 20260508233843 | 74 | 111 | 0.0 | 0.0 | 0.00 | 0.01 | 0.01 | 91 | 1010.4 |
| 20260508232842 | 74 | 112 | 0.0 | 0.0 | 0.00 | 0.01 | 0.01 | 90 | 1010.4 |
| 20260508231941 | 75 | 132 | 0.0 | 0.0 | 0.00 | 0.01 | 0.01 | 90 | 1009.9 |
| 20260508230942 | 75 | 101 | 0.0 | 0.0 | 0.00 | 0.01 | 0.01 | 89 | 1010.2 |
| 20260508225942 | 75 | 123 | 0.0 | 0.0 | 0.00 | 0.01 | 0.01 | 89 | 1009.9 |
| 20260508224042 | 74 | 90 | 0.0 | 0.0 | 0.00 | 0.01 | 0.01 | 89 | 1009.7 |
| 20260508222044 | 74 | 155 | 0.0 | 0.0 | 0.00 | 0.01 | 0.01 | 89 | 1010.2 |
| 20260508220141 | 74 | 180 | 0.0 | 0.0 | 0.00 | 0.01 | 0.01 | 89 | 1010.4 |
| 20260508215141 | 74 | 298 | 0.0 | 1.0 | 0.00 | 0.01 | 0.01 | 89 | 1010.4 |
| 20260508214140 | 74 | 139 | 0.0 | 0.0 | 0.00 | 0.01 | 0.01 | 89 | 1010.6 |
| 20260508213142 | 74 | 67 | 0.0 | 0.0 | 0.00 | 0.01 | 0.01 | 89 | 1010.5 |
| 20260508212143 | 74 | 68 | 0.0 | 2.0 | 0.00 | 0.01 | 0.01 | 87 | 1010.5 |
| 20260508210141 | 73 | 67 | 0.0 | 0.0 | 0.00 | 0.01 | 0.01 | 89 | 1010.6 |
| 20260508205240 | 74 | 135 | 0.0 | 0.0 | 0.00 | 0.01 | 0.01 | 89 | 1010.6 |
| 20260508204242 | 74 | 33 | 0.0 | 2.0 | 0.00 | 0.01 | 0.01 | 89 | 1010.7 |
| 20260508203241 | 73 | 104 | 0.0 | 0.0 | 0.00 | 0.01 | 0.01 | 90 | 1010.8 |
| 20260508202243 | 73 | 90 | 0.0 | 0.0 | 0.00 | 0.01 | 0.01 | 90 | 1011.1 |
| 20260508195441 | 72 | 112 | 0.0 | 0.0 | 0.00 | 0.01 | 0.01 | 91 | 1011.7 |
| 20260508194540 | 72 | 67 | 0.0 | 0.0 | 0.00 | 0.01 | 0.01 | 92 | 1011.7 |
| 20260508193542 | 72 | 97 | 0.0 | 2.0 | 0.00 | 0.01 | 0.01 | 91 | 1011.6 |
| 20260508192542 | 71 | 102 | 0.0 | 1.0 | 0.00 | 0.01 | 0.01 | 93 | 1011.4 |